Multibeam Report for MGLN44MV


Ship Name: Melville
Chief Scientist: None
Source Organization: UNOLS R2R
Start Date: 2008-08-14
End Date: 2008-08-22


View ISO Metadata

Visit the full NCEI Bathymetry Viewer


Multibeam Bathymetry

Cruise Details

Project: Transit
Instrument: Simrad EM120

Data Quality

Number of Files: 237
Number of Records: 49812
BATHYMETRY DATA Quantity Percentage
Number of Beams 9514092 100%
Number of Good Beams 8883402 93.37%
Number of Zero Beams 630690 6.63%
Number of Flagged Beams 0 0%
AMPLITUDE DATA Quantity Percentage
Number of Beams 9514092 100%
Number of Good Beams 8883402 93.37%
Number of Zero Beams 630690 6.63%
Number of Flagged Beams 0 0%
SIDESCAN DATA Quantity Percentage
Number of Pixels 51007488 100%
Number of Good Pixels 36710622 71.97%
Number of Zero Pixels 0 0%
Number of Flagged Pixels 14296866 28.03%

Navigation Totals

Total Time: 225.6282 hours
Total Track Length: 4909.9587 km
Average Speed: 21.761 km/hr (11.7500 knots)

Cruise Bounds

Northern Extent: 54.01977
Southern Extent: 21.262411
Western Extent: -166.06442
Eastern Extent: -153.88426

Limits

Minimum Sonar Depth 1.37 Maximum Sonar Depth 7.98
Minimum Altitude 0 Maximum Altitude 7095.6802
Minimum Depth 37.28 Maximum Depth 8190.9302
Minimum Amplitude 0 Maximum Amplitude 31
Minimum Sidescan 0 Maximum Sidescan 32.15

File Information

Full Resolution Bathymetry as collected (raw): 234

Files File Size Description
0000_20080813_011622_melville.all.mb56.gz 10.12MB Simrad multibeam vendor format
0001_20080813_021623_melville.all.mb56.gz 4.79MB Simrad multibeam vendor format
0002_20080813_031623_melville.all.mb56.gz 8.95MB Simrad multibeam vendor format
0003_20080813_041623_melville.all.mb56.gz 5.87MB Simrad multibeam vendor format
0004_20080813_051624_melville.all.mb56.gz 3.83MB Simrad multibeam vendor format
0005_20080813_061624_melville.all.mb56.gz 3.82MB Simrad multibeam vendor format
0006_20080813_071624_melville.all.mb56.gz 3.77MB Simrad multibeam vendor format
0007_20080813_081625_melville.all.mb56.gz 3.90MB Simrad multibeam vendor format
0008_20080813_091626_melville.all.mb56.gz 3.93MB Simrad multibeam vendor format
0009_20080813_101627_melville.all.mb56.gz 3.74MB Simrad multibeam vendor format
0010_20080813_111627_melville.all.mb56.gz 3.63MB Simrad multibeam vendor format
0011_20080813_121627_melville.all.mb56.gz 3.68MB Simrad multibeam vendor format
0012_20080813_131628_melville.all.mb56.gz 3.65MB Simrad multibeam vendor format
0013_20080813_141629_melville.all.mb56.gz 3.61MB Simrad multibeam vendor format
0014_20080813_151630_melville.all.mb56.gz 3.59MB Simrad multibeam vendor format
0015_20080813_161630_melville.all.mb56.gz 3.62MB Simrad multibeam vendor format
0016_20080813_171631_melville.all.mb56.gz 2.48MB Simrad multibeam vendor format
0017_20080813_182037_melville.all.mb56.gz 3.60MB Simrad multibeam vendor format
0018_20080813_192038_melville.all.mb56.gz 1.19MB Simrad multibeam vendor format
0019_20080813_194025_melville.all.mb56.gz 22.3KB Simrad multibeam vendor format
0020_20080813_194321_melville.all.mb56.gz 88.3KB Simrad multibeam vendor format
0021_20080813_200046_melville.all.mb56.gz 511.7KB Simrad multibeam vendor format
0022_20080813_201251_melville.all.mb56.gz 3.52MB Simrad multibeam vendor format
0023_20080813_211251_melville.all.mb56.gz 3.49MB Simrad multibeam vendor format
0024_20080813_221251_melville.all.mb56.gz 3.49MB Simrad multibeam vendor format
0025_20080813_231252_melville.all.mb56.gz 3.51MB Simrad multibeam vendor format
0026_20080814_001252_melville.all.mb56.gz 3.52MB Simrad multibeam vendor format
0027_20080814_011252_melville.all.mb56.gz 3.53MB Simrad multibeam vendor format
0028_20080814_021252_melville.all.mb56.gz 3.43MB Simrad multibeam vendor format
0029_20080814_031252_melville.all.mb56.gz 3.10MB Simrad multibeam vendor format
0030_20080814_040709_melville.all.mb56.gz 228.6KB Simrad multibeam vendor format
0031_20080814_041307_melville.all.mb56.gz 3.43MB Simrad multibeam vendor format
0032_20080814_051307_melville.all.mb56.gz 3.61MB Simrad multibeam vendor format
0033_20080814_061307_melville.all.mb56.gz 0.60MB Simrad multibeam vendor format
0034_20080814_062318_melville.all.mb56.gz 3.38MB Simrad multibeam vendor format
0035_20080814_072318_melville.all.mb56.gz 3.50MB Simrad multibeam vendor format
0036_20080814_082318_melville.all.mb56.gz 3.53MB Simrad multibeam vendor format
0037_20080814_092318_melville.all.mb56.gz 3.40MB Simrad multibeam vendor format
0038_20080814_102318_melville.all.mb56.gz 3.44MB Simrad multibeam vendor format
0039_20080814_112318_melville.all.mb56.gz 3.53MB Simrad multibeam vendor format
0040_20080814_122318_melville.all.mb56.gz 3.50MB Simrad multibeam vendor format
0041_20080814_132318_melville.all.mb56.gz 3.45MB Simrad multibeam vendor format
0042_20080814_142318_melville.all.mb56.gz 3.49MB Simrad multibeam vendor format
0043_20080814_152318_melville.all.mb56.gz 3.47MB Simrad multibeam vendor format
0044_20080814_162318_melville.all.mb56.gz 3.41MB Simrad multibeam vendor format
0045_20080814_172318_melville.all.mb56.gz 3.54MB Simrad multibeam vendor format
0046_20080814_182318_melville.all.mb56.gz 3.57MB Simrad multibeam vendor format
0047_20080814_192318_melville.all.mb56.gz 3.64MB Simrad multibeam vendor format
0048_20080814_202318_melville.all.mb56.gz 3.62MB Simrad multibeam vendor format
0049_20080814_212318_melville.all.mb56.gz 3.61MB Simrad multibeam vendor format
0050_20080814_222318_melville.all.mb56.gz 3.69MB Simrad multibeam vendor format
0051_20080814_232318_melville.all.mb56.gz 3.67MB Simrad multibeam vendor format
0052_20080815_002318_melville.all.mb56.gz 3.62MB Simrad multibeam vendor format
0053_20080815_012318_melville.all.mb56.gz 3.78MB Simrad multibeam vendor format
0054_20080815_022318_melville.all.mb56.gz 3.76MB Simrad multibeam vendor format
0055_20080815_032318_melville.all.mb56.gz 3.79MB Simrad multibeam vendor format
0056_20080815_042318_melville.all.mb56.gz 3.75MB Simrad multibeam vendor format
0057_20080815_052318_melville.all.mb56.gz 3.66MB Simrad multibeam vendor format
0058_20080815_062318_melville.all.mb56.gz 3.70MB Simrad multibeam vendor format
0059_20080815_072318_melville.all.mb56.gz 3.65MB Simrad multibeam vendor format
0060_20080815_082318_melville.all.mb56.gz 3.64MB Simrad multibeam vendor format
0061_20080815_092318_melville.all.mb56.gz 3.64MB Simrad multibeam vendor format
0062_20080815_102318_melville.all.mb56.gz 3.64MB Simrad multibeam vendor format
0063_20080815_112318_melville.all.mb56.gz 3.65MB Simrad multibeam vendor format
0064_20080815_122318_melville.all.mb56.gz 3.71MB Simrad multibeam vendor format
0065_20080815_132318_melville.all.mb56.gz 3.75MB Simrad multibeam vendor format
0066_20080815_142318_melville.all.mb56.gz 3.71MB Simrad multibeam vendor format
0067_20080815_152318_melville.all.mb56.gz 3.81MB Simrad multibeam vendor format
0068_20080815_162318_melville.all.mb56.gz 3.77MB Simrad multibeam vendor format
0069_20080815_172318_melville.all.mb56.gz 3.71MB Simrad multibeam vendor format
0070_20080815_182318_melville.all.mb56.gz 3.64MB Simrad multibeam vendor format
0071_20080815_192318_melville.all.mb56.gz 3.66MB Simrad multibeam vendor format
0072_20080815_202318_melville.all.mb56.gz 3.62MB Simrad multibeam vendor format
0073_20080815_212318_melville.all.mb56.gz 3.69MB Simrad multibeam vendor format
0074_20080815_222318_melville.all.mb56.gz 3.87MB Simrad multibeam vendor format
0075_20080815_232318_melville.all.mb56.gz 3.71MB Simrad multibeam vendor format
0076_20080816_002318_melville.all.mb56.gz 3.78MB Simrad multibeam vendor format
0077_20080816_012318_melville.all.mb56.gz 3.71MB Simrad multibeam vendor format
0078_20080816_022318_melville.all.mb56.gz 3.53MB Simrad multibeam vendor format
0079_20080816_032318_melville.all.mb56.gz 3.68MB Simrad multibeam vendor format
0080_20080816_042318_melville.all.mb56.gz 3.64MB Simrad multibeam vendor format
0081_20080816_052318_melville.all.mb56.gz 3.64MB Simrad multibeam vendor format
0082_20080816_062318_melville.all.mb56.gz 3.66MB Simrad multibeam vendor format
0083_20080816_072318_melville.all.mb56.gz 3.75MB Simrad multibeam vendor format
0084_20080816_082318_melville.all.mb56.gz 3.68MB Simrad multibeam vendor format
0085_20080816_092318_melville.all.mb56.gz 3.71MB Simrad multibeam vendor format
0086_20080816_102318_melville.all.mb56.gz 3.68MB Simrad multibeam vendor format
0087_20080816_112318_melville.all.mb56.gz 3.66MB Simrad multibeam vendor format
0088_20080816_122318_melville.all.mb56.gz 3.69MB Simrad multibeam vendor format
0089_20080816_132318_melville.all.mb56.gz 3.82MB Simrad multibeam vendor format
0090_20080816_142318_melville.all.mb56.gz 3.74MB Simrad multibeam vendor format
0091_20080816_152318_melville.all.mb56.gz 3.84MB Simrad multibeam vendor format
0092_20080816_162318_melville.all.mb56.gz 3.72MB Simrad multibeam vendor format
0093_20080816_172318_melville.all.mb56.gz 3.68MB Simrad multibeam vendor format
0094_20080816_182318_melville.all.mb56.gz 3.62MB Simrad multibeam vendor format
0095_20080816_192318_melville.all.mb56.gz 3.71MB Simrad multibeam vendor format
0096_20080816_202318_melville.all.mb56.gz 3.78MB Simrad multibeam vendor format
0097_20080816_212318_melville.all.mb56.gz 3.89MB Simrad multibeam vendor format
0098_20080816_222318_melville.all.mb56.gz 3.93MB Simrad multibeam vendor format
0099_20080816_232318_melville.all.mb56.gz 3.94MB Simrad multibeam vendor format
0100_20080817_002318_melville.all.mb56.gz 3.90MB Simrad multibeam vendor format
0101_20080817_012318_melville.all.mb56.gz 3.83MB Simrad multibeam vendor format
0102_20080817_022318_melville.all.mb56.gz 3.80MB Simrad multibeam vendor format
0103_20080817_032318_melville.all.mb56.gz 3.74MB Simrad multibeam vendor format
0104_20080817_042318_melville.all.mb56.gz 3.74MB Simrad multibeam vendor format
0105_20080817_052318_melville.all.mb56.gz 3.68MB Simrad multibeam vendor format
0106_20080817_062318_melville.all.mb56.gz 3.73MB Simrad multibeam vendor format
0107_20080817_072318_melville.all.mb56.gz 3.61MB Simrad multibeam vendor format
0108_20080817_082318_melville.all.mb56.gz 3.56MB Simrad multibeam vendor format
0109_20080817_092318_melville.all.mb56.gz 3.51MB Simrad multibeam vendor format
0110_20080817_102318_melville.all.mb56.gz 3.49MB Simrad multibeam vendor format
0111_20080817_112318_melville.all.mb56.gz 3.47MB Simrad multibeam vendor format
0112_20080817_122318_melville.all.mb56.gz 3.45MB Simrad multibeam vendor format
0113_20080817_132318_melville.all.mb56.gz 3.43MB Simrad multibeam vendor format
0114_20080817_142318_melville.all.mb56.gz 3.45MB Simrad multibeam vendor format
0115_20080817_152318_melville.all.mb56.gz 3.50MB Simrad multibeam vendor format
0116_20080817_162318_melville.all.mb56.gz 3.52MB Simrad multibeam vendor format
0117_20080817_172318_melville.all.mb56.gz 3.49MB Simrad multibeam vendor format
0118_20080817_182318_melville.all.mb56.gz 3.41MB Simrad multibeam vendor format
0119_20080817_192318_melville.all.mb56.gz 3.48MB Simrad multibeam vendor format
0120_20080817_202318_melville.all.mb56.gz 3.42MB Simrad multibeam vendor format
0121_20080817_212318_melville.all.mb56.gz 3.36MB Simrad multibeam vendor format
0122_20080817_222318_melville.all.mb56.gz 3.35MB Simrad multibeam vendor format
0123_20080817_232318_melville.all.mb56.gz 3.32MB Simrad multibeam vendor format
0124_20080818_002318_melville.all.mb56.gz 3.32MB Simrad multibeam vendor format
0125_20080818_012318_melville.all.mb56.gz 3.34MB Simrad multibeam vendor format
0126_20080818_022318_melville.all.mb56.gz 3.33MB Simrad multibeam vendor format
0127_20080818_032318_melville.all.mb56.gz 3.52MB Simrad multibeam vendor format
0128_20080818_042318_melville.all.mb56.gz 3.53MB Simrad multibeam vendor format
0129_20080818_052318_melville.all.mb56.gz 3.47MB Simrad multibeam vendor format
0130_20080818_062318_melville.all.mb56.gz 3.43MB Simrad multibeam vendor format
0131_20080818_072318_melville.all.mb56.gz 3.38MB Simrad multibeam vendor format
0132_20080818_082318_melville.all.mb56.gz 3.40MB Simrad multibeam vendor format
0133_20080818_092318_melville.all.mb56.gz 3.32MB Simrad multibeam vendor format
0134_20080818_102318_melville.all.mb56.gz 3.23MB Simrad multibeam vendor format
0135_20080818_112318_melville.all.mb56.gz 3.20MB Simrad multibeam vendor format
0136_20080818_122318_melville.all.mb56.gz 3.29MB Simrad multibeam vendor format
0137_20080818_132318_melville.all.mb56.gz 3.35MB Simrad multibeam vendor format
0138_20080818_142318_melville.all.mb56.gz 3.50MB Simrad multibeam vendor format
0139_20080818_152318_melville.all.mb56.gz 3.57MB Simrad multibeam vendor format
0140_20080818_162318_melville.all.mb56.gz 3.62MB Simrad multibeam vendor format
0141_20080818_172318_melville.all.mb56.gz 3.66MB Simrad multibeam vendor format
0142_20080818_182318_melville.all.mb56.gz 3.70MB Simrad multibeam vendor format
0143_20080818_192318_melville.all.mb56.gz 3.71MB Simrad multibeam vendor format
0144_20080818_202318_melville.all.mb56.gz 3.75MB Simrad multibeam vendor format
0145_20080818_212318_melville.all.mb56.gz 3.84MB Simrad multibeam vendor format
0146_20080818_222318_melville.all.mb56.gz 3.78MB Simrad multibeam vendor format
0147_20080818_232318_melville.all.mb56.gz 3.83MB Simrad multibeam vendor format
0148_20080819_002318_melville.all.mb56.gz 3.95MB Simrad multibeam vendor format
0149_20080819_012318_melville.all.mb56.gz 3.98MB Simrad multibeam vendor format
0150_20080819_022318_melville.all.mb56.gz 3.98MB Simrad multibeam vendor format
0151_20080819_032320_melville.all.mb56.gz 3.96MB Simrad multibeam vendor format
0152_20080819_042318_melville.all.mb56.gz 3.99MB Simrad multibeam vendor format
0153_20080819_052318_melville.all.mb56.gz 3.93MB Simrad multibeam vendor format
0154_20080819_062318_melville.all.mb56.gz 4.02MB Simrad multibeam vendor format
0155_20080819_072318_melville.all.mb56.gz 4.00MB Simrad multibeam vendor format
0156_20080819_082318_melville.all.mb56.gz 4.00MB Simrad multibeam vendor format
0157_20080819_092318_melville.all.mb56.gz 3.96MB Simrad multibeam vendor format
0158_20080819_102318_melville.all.mb56.gz 4.04MB Simrad multibeam vendor format
0159_20080819_112318_melville.all.mb56.gz 4.03MB Simrad multibeam vendor format
0160_20080819_122318_melville.all.mb56.gz 4.03MB Simrad multibeam vendor format
0161_20080819_132318_melville.all.mb56.gz 4.02MB Simrad multibeam vendor format
0162_20080819_142318_melville.all.mb56.gz 4.00MB Simrad multibeam vendor format
0163_20080819_152318_melville.all.mb56.gz 4.06MB Simrad multibeam vendor format
0164_20080819_162318_melville.all.mb56.gz 4.05MB Simrad multibeam vendor format
0165_20080819_172318_melville.all.mb56.gz 4.09MB Simrad multibeam vendor format
0166_20080819_182318_melville.all.mb56.gz 4.12MB Simrad multibeam vendor format
0167_20080819_192318_melville.all.mb56.gz 4.09MB Simrad multibeam vendor format
0168_20080819_202318_melville.all.mb56.gz 4.04MB Simrad multibeam vendor format
0169_20080819_212318_melville.all.mb56.gz 4.06MB Simrad multibeam vendor format
0170_20080819_222318_melville.all.mb56.gz 4.05MB Simrad multibeam vendor format
0171_20080819_232318_melville.all.mb56.gz 4.05MB Simrad multibeam vendor format
0172_20080820_002318_melville.all.mb56.gz 3.99MB Simrad multibeam vendor format
0173_20080820_012318_melville.all.mb56.gz 3.95MB Simrad multibeam vendor format
0174_20080820_022318_melville.all.mb56.gz 3.89MB Simrad multibeam vendor format
0175_20080820_032318_melville.all.mb56.gz 3.94MB Simrad multibeam vendor format
0176_20080820_042318_melville.all.mb56.gz 3.96MB Simrad multibeam vendor format
0177_20080820_052318_melville.all.mb56.gz 3.96MB Simrad multibeam vendor format
0178_20080820_062318_melville.all.mb56.gz 3.99MB Simrad multibeam vendor format
0179_20080820_072318_melville.all.mb56.gz 4.03MB Simrad multibeam vendor format
0180_20080820_082319_melville.all.mb56.gz 4.04MB Simrad multibeam vendor format
0181_20080820_092318_melville.all.mb56.gz 4.03MB Simrad multibeam vendor format
0182_20080820_102318_melville.all.mb56.gz 4.02MB Simrad multibeam vendor format
0183_20080820_112318_melville.all.mb56.gz 4.00MB Simrad multibeam vendor format
0184_20080820_122318_melville.all.mb56.gz 4.01MB Simrad multibeam vendor format
0185_20080820_132318_melville.all.mb56.gz 4.00MB Simrad multibeam vendor format
0186_20080820_142318_melville.all.mb56.gz 4.07MB Simrad multibeam vendor format
0187_20080820_152319_melville.all.mb56.gz 4.06MB Simrad multibeam vendor format
0188_20080820_162318_melville.all.mb56.gz 4.07MB Simrad multibeam vendor format
0189_20080820_172318_melville.all.mb56.gz 4.03MB Simrad multibeam vendor format
0190_20080820_182318_melville.all.mb56.gz 4.04MB Simrad multibeam vendor format
0191_20080820_192318_melville.all.mb56.gz 4.08MB Simrad multibeam vendor format
0192_20080820_202318_melville.all.mb56.gz 4.05MB Simrad multibeam vendor format
0193_20080820_212319_melville.all.mb56.gz 4.15MB Simrad multibeam vendor format
0194_20080820_222319_melville.all.mb56.gz 4.19MB Simrad multibeam vendor format
0195_20080820_232319_melville.all.mb56.gz 0.50MB Simrad multibeam vendor format
0196_20080821_002940_melville.all.mb56.gz 4.14MB Simrad multibeam vendor format
0197_20080821_012940_melville.all.mb56.gz 4.10MB Simrad multibeam vendor format
0198_20080821_022941_melville.all.mb56.gz 3.98MB Simrad multibeam vendor format
0199_20080821_032941_melville.all.mb56.gz 4.00MB Simrad multibeam vendor format
0200_20080821_042941_melville.all.mb56.gz 3.98MB Simrad multibeam vendor format
0201_20080821_052941_melville.all.mb56.gz 3.96MB Simrad multibeam vendor format
0202_20080821_062941_melville.all.mb56.gz 3.94MB Simrad multibeam vendor format
0203_20080821_072941_melville.all.mb56.gz 3.88MB Simrad multibeam vendor format
0204_20080821_082941_melville.all.mb56.gz 3.95MB Simrad multibeam vendor format
0205_20080821_092941_melville.all.mb56.gz 3.94MB Simrad multibeam vendor format
0206_20080821_102941_melville.all.mb56.gz 3.89MB Simrad multibeam vendor format
0207_20080821_112941_melville.all.mb56.gz 3.84MB Simrad multibeam vendor format
0208_20080821_122941_melville.all.mb56.gz 3.82MB Simrad multibeam vendor format
0209_20080821_132941_melville.all.mb56.gz 3.77MB Simrad multibeam vendor format
0210_20080821_142941_melville.all.mb56.gz 3.75MB Simrad multibeam vendor format
0211_20080821_152941_melville.all.mb56.gz 3.70MB Simrad multibeam vendor format
0212_20080821_162941_melville.all.mb56.gz 3.72MB Simrad multibeam vendor format
0213_20080821_172941_melville.all.mb56.gz 3.74MB Simrad multibeam vendor format
0214_20080821_182941_melville.all.mb56.gz 3.70MB Simrad multibeam vendor format
0215_20080821_192941_melville.all.mb56.gz 3.67MB Simrad multibeam vendor format
0216_20080821_202941_melville.all.mb56.gz 3.64MB Simrad multibeam vendor format
0217_20080821_212941_melville.all.mb56.gz 3.62MB Simrad multibeam vendor format
0218_20080821_222941_melville.all.mb56.gz 3.75MB Simrad multibeam vendor format
0219_20080821_232941_melville.all.mb56.gz 3.69MB Simrad multibeam vendor format
0220_20080822_002941_melville.all.mb56.gz 3.66MB Simrad multibeam vendor format
0221_20080822_012941_melville.all.mb56.gz 3.69MB Simrad multibeam vendor format
0222_20080822_022941_melville.all.mb56.gz 3.65MB Simrad multibeam vendor format
0223_20080822_032941_melville.all.mb56.gz 3.67MB Simrad multibeam vendor format
0224_20080822_042941_melville.all.mb56.gz 3.29MB Simrad multibeam vendor format
0225_20080822_052656_melville.all.mb56.gz 3.48MB Simrad multibeam vendor format
0226_20080822_062656_melville.all.mb56.gz 3.52MB Simrad multibeam vendor format
0227_20080822_072656_melville.all.mb56.gz 3.69MB Simrad multibeam vendor format
0228_20080822_082656_melville.all.mb56.gz 3.65MB Simrad multibeam vendor format
0229_20080822_092656_melville.all.mb56.gz 3.96MB Simrad multibeam vendor format
0230_20080822_102656_melville.all.mb56.gz 6.13MB Simrad multibeam vendor format
0231_20080822_112656_melville.all.mb56.gz 21.67MB Simrad multibeam vendor format
0232_20080822_122657_melville.all.mb56.gz 26.76MB Simrad multibeam vendor format
0233_20080822_132657_melville.all.mb56.gz 18.04MB Simrad multibeam vendor format

Metadata Files: 2

Files File Size Description
MGLN44MV_Multibeam.xml NCEI created ISO metadata
xbt_bag_info.tar.gz 1.4KB Additional cruise information

Ancillary Files: 1

Files File Size Description
xbt.tar.gz 185.6KB Expendable Bathythermograph (XBT) data